Regional Weather Roundup
Issued by NWS Goodland, KS

Home | Current Version | Previous Version | Graphics & Text | Print | Product List | Glossary On
Versions: 1 2 3 4 5 6 7 8 9 10 11 12 13 14 15 16 17 18 19 20 21 22 23 24 25 26 27 28 29 30 31 32 33 34 35 36 37 38 39 40 41 42 43 44 45 46 47 48 49 50
000
ASUS43 KGLD 290008
RWRGLD

GOODLAND FORECAST AREA HOURLY WEATHER ROUNDUP
NATIONAL WEATHER SERVICE GOODLAND KS
600 PM MDT MON JUL 28 2014

...OFFICIAL OBSERVATIONS...

CITY           SKY/WX    TMP DP  RH WIND       PRES   REMARKS
GOODLAND KS    MOSUNNY   80  51  36 S16       30.24F
HILL CITY KS   SUNNY     90  56  31 SE10      30.16F
IMPERIAL NEB   MOSUNNY   87  54  32 E9        30.19F
MCCOOK NEB     MOSUNNY   85  59  41 E16       30.17F
AKRON CO       CLOUDY    82  52  35 SE18G26   30.23F
BURLINGTON CO  PTSUNNY   79  52  38 S10       30.26F
LIMON CO       CLOUDY    75  54  47 S15G22    30.31F
$$

...UNOFFICIAL OBSERVATIONS...

CITY           SKY/WX    TMP DP  RH WIND       PRES   REMARKS
COLBY KS       SUNNY     84  61  45 S9        30.21F HAZE
LENORA KS        N/A     85  32  15 MISG        N/A
NORTON KS      SUNNY     88  50  27 E7        30.17F
WAKEENEY KS      N/A     88  48  24 MISG        N/A
KIT CARSON CO    N/A     80  58  47 N13G20      N/A
YUMA CO          N/A     83  54  36 SE12        N/A
$$



USA.gov is the U.S. government's official web portal to all federal, state and local government web resources and services.